Location: Hamburg
(53.5554°N, 9.9941°E)
Time: 19:45:21
(UTC+01:00)

ISS - Pass Details

Date: 16 November 2017
Orbit: 401 x 407 km, 51.6° (Epoch: 25 November)

Event Time Altitude Azimuth Distance (km) Brightness Sun altitude
Exits shadow 05:38:26 14° 193° (SSW) 1,230 -1.5 -18.9°
Drops below altitude 10° 05:39:29 10° 175° (S) 1,450 -0.9 -18.7°
Sets 05:42:06 0° 153° (SSE) 2,305 0.5 -18.3°
